Location: Mahannah Oil Field
(37.4664°N, 96.6003°W)
Time: 18:08:13
(UTC+00:00)

Vanguard 2 - Pass Details

Date: 24 June 2021
Orbit: 552 x 2937 km, 32.9° (Epoch: 26 July)

Event Time Altitude Azimuth Distance (km) Brightness Sun altitude
Rises 05:08:31 0° 272° (W) 4,470 11.7 -26.3°
Reaches altitude 10° 05:14:19 10° 244° (WSW) 2,882 10.4 -26.7°
Enters shadow 05:15:20 11° 236° (SW) 2,694 10.2 -26.7°
